User: anonymous   Login
Location: Unspecified
(0.0000°N, 0.0000°E)
Time: 21:49:21
(UTC+00:00)
Language:

OBJECT AA - Orbit

View from above orbital plane
View from above orbital plane
View from above satellite
View from above satellite

Ground track
Ground track

The orbit data is extracted from the following two-line orbital elements,

1 43135U 18004AA  18343.92252539 +.00001353 +00000-0 +60162-4 0  9996
2 43135 097.5138 046.9572 0009277 195.6790 164.4160 15.23231738050468
Epoch (UTC): 09 December 2018 22:08:26
Eccentricity: 0.0009277
inclination: 97.5138°
perigee height: 490 km
apogee height: 502 km
right ascension of ascending node: 46.9572°
argument of perigee: 195.6790°
revolutions per day: 15.23231738
mean anomaly at epoch: 164.4160°
orbit number at epoch: 5046

The dashed part of the orbit path shows where the satellite is in the earth's shadow,  

DLR